• In Belarus
  • List of Countries
  • For 7 days
  • Water Temperature
  • Satellite Maps
  • Weather Map
  • Weather Widgets
  • user-avatar
    Login

    Hourly Weather Channapatna

    Today, 20 March, Wednesday

    Time Temperature Precipitation Wind Pressure Humidity
    00:00 +29°C° 0 mm 3 mps 702 mmHg 42%
    01:00 +29°C° 0 mm 2 mps 701 mmHg 47%
    02:00 +28°C° 0 mm 2 mps 701 mmHg 51%
    03:00 +27°C° 0 mm 2 mps 701 mmHg 54%
    04:00 +27°C° 0 mm 2 mps 701 mmHg 56%
    05:00 +26°C° 0 mm 1 mps 701 mmHg 56%
    06:00 +27°C° 0 mm 2 mps 702 mmHg 54%
    07:00 +28°C° 0 mm 2 mps 702 mmHg 52%
    08:00 +29°C° 0 mm 3 mps 703 mmHg 50%
    09:00 +31°C° 0 mm 3 mps 703 mmHg 45%
    10:00 +33°C° 0 mm 3 mps 703 mmHg 40%
    11:00 +35°C° 0 mm 3 mps 703 mmHg 33%
    12:00 +36°C° 0 mm 3 mps 703 mmHg 31%
    13:00 +36°C° 0 mm 3 mps 702 mmHg 29%
    14:00 +37°C° 0 mm 3 mps 702 mmHg 26%
    15:00 +37°C° 0 mm 2 mps 701 mmHg 26%
    16:00 +36°C° 0 mm 2 mps 701 mmHg 26%
    17:00 +36°C° 0 mm 2 mps 701 mmHg 26%
    18:00 +35°C° 0 mm 2 mps 701 mmHg 28%
    19:00 +34°C° 0 mm 3 mps 702 mmHg 30%
    20:00 +33°C° 0 mm 3 mps 702 mmHg 32%
    21:00 +31°C° 0 mm 3 mps 702 mmHg 36%
    22:00 +30°C° 0 mm 3 mps 702 mmHg 41%
    23:00 +29°C° 0 mm 4 mps 702 mmHg 45%

    Tomorrow, 21 March, Thursday

    Time Temperature Precipitation Wind Pressure Humidity
    00:00 +28°C° 0 mm 3 mps 702 mmHg 49%
    01:00 +27°C° 0 mm 3 mps 702 mmHg 53%
    02:00 +27°C° 0 mm 2 mps 701 mmHg 58%
    03:00 +26°C° 0 mm 2 mps 701 mmHg 59%
    04:00 +26°C° 0 mm 2 mps 701 mmHg 61%
    05:00 +25°C° 0 mm 1 mps 702 mmHg 63%
    06:00 +26°C° 0 mm 1 mps 702 mmHg 60%
    07:00 +27°C° 0 mm 1 mps 703 mmHg 57%
    08:00 +28°C° 0 mm 2 mps 704 mmHg 53%
    09:00 +30°C° 0 mm 2 mps 704 mmHg 47%
    10:00 +32°C° 0 mm 2 mps 704 mmHg 40%
    11:00 +35°C° 0 mm 2 mps 704 mmHg 33%
    12:00 +36°C° 0 mm 2 mps 703 mmHg 30%
    13:00 +37°C° 0 mm 2 mps 703 mmHg 27%
    14:00 +38°C° 0 mm 2 mps 702 mmHg 24%
    15:00 +38°C° 0 mm 2 mps 702 mmHg 23%
    16:00 +37°C° 0 mm 2 mps 701 mmHg 22%
    17:00 +37°C° 0 mm 3 mps 701 mmHg 21%
    18:00 +36°C° 0 mm 3 mps 702 mmHg 21%
    19:00 +35°C° 0 mm 3 mps 703 mmHg 22%
    20:00 +34°C° 0 mm 4 mps 703 mmHg 22%
    21:00 +33°C° 0 mm 3 mps 703 mmHg 26%
    22:00 +30°C° 0 mm 3 mps 703 mmHg 30%
    23:00 +29°C° 0 mm 2 mps 704 mmHg 35%

    Day after tomorrow, 22 March, Friday

    Time Temperature Precipitation Wind Pressure Humidity
    00:00 +28°C° 0 mm 2 mps 703 mmHg 38%
    01:00 +27°C° 0 mm 2 mps 703 mmHg 42%
    02:00 +27°C° 0 mm 2 mps 702 mmHg 45%
    03:00 +26°C° 0 mm 2 mps 702 mmHg 47%
    04:00 +26°C° 0 mm 2 mps 702 mmHg 49%
    05:00 +25°C° 0 mm 2 mps 702 mmHg 52%
    06:00 +26°C° 0 mm 2 mps 703 mmHg 51%
    07:00 +27°C° 0 mm 2 mps 704 mmHg 51%
    08:00 +28°C° 0 mm 2 mps 704 mmHg 50%
    09:00 +30°C° 0 mm 2 mps 704 mmHg 43%
    10:00 +33°C° 0 mm 1 mps 705 mmHg 35%
    11:00 +35°C° 0 mm 1 mps 705 mmHg 27%
    12:00 +36°C° 0 mm 1 mps 704 mmHg 24%
    13:00 +37°C° 0 mm 2 mps 703 mmHg 22%
    14:00 +38°C° 0 mm 3 mps 702 mmHg 19%
    15:00 +38°C° 0 mm 2 mps 702 mmHg 18%
    16:00 +38°C° 0 mm 2 mps 701 mmHg 18%
    17:00 +38°C° 0 mm 2 mps 701 mmHg 17%
    18:00 +36°C° 0 mm 3 mps 702 mmHg 18%
    19:00 +35°C° 0 mm 3 mps 702 mmHg 20%
    20:00 +33°C° 0 mm 3 mps 703 mmHg 21%
    21:00 +31°C° 0 mm 3 mps 703 mmHg 25%
    22:00 +30°C° 0 mm 3 mps 703 mmHg 29%
    23:00 +29°C° 0 mm 3 mps 703 mmHg 33%

    23 March, Saturday

    Time Temperature Precipitation Wind Pressure Humidity
    00:00 +28°C° 0 mm 3 mps 703 mmHg 36%
    01:00 +28°C° 0 mm 2 mps 702 mmHg 39%
    02:00 +27°C° 0 mm 1 mps 701 mmHg 42%
    03:00 +26°C° 0 mm 1 mps 701 mmHg 43%
    04:00 +26°C° 0 mm 1 mps 701 mmHg 44%
    05:00 +25°C° 0 mm 1 mps 701 mmHg 45%
    06:00 +26°C° 0 mm 1 mps 702 mmHg 45%
    07:00 +28°C° 0 mm 1 mps 703 mmHg 44%
    08:00 +29°C° 0 mm 1 mps 704 mmHg 44%
    09:00 +31°C° 0 mm 2 mps 704 mmHg 37%
    10:00 +34°C° 0 mm 2 mps 704 mmHg 31%
    11:00 +36°C° 0 mm 2 mps 704 mmHg 24%
    12:00 +37°C° 0 mm 2 mps 703 mmHg 22%
    13:00 +38°C° 0 mm 3 mps 702 mmHg 20%
    14:00 +39°C° 0 mm 3 mps 701 mmHg 18%
    15:00 +39°C° 0 mm 3 mps 701 mmHg 18%
    16:00 +39°C° 0 mm 3 mps 701 mmHg 17%
    17:00 +38°C° 0 mm 3 mps 701 mmHg 17%
    18:00 +37°C° 0 mm 3 mps 701 mmHg 19%
    19:00 +35°C° 0 mm 3 mps 702 mmHg 21%
    20:00 +33°C° 0 mm 3 mps 702 mmHg 23%
    21:00 +31°C° 0 mm 3 mps 702 mmHg 26%
    22:00 +31°C° 0 mm 3 mps 702 mmHg 28%
    23:00 +30°C° 0 mm 3 mps 703 mmHg 31%

    24 March, Sunday

    Time Temperature Precipitation Wind Pressure Humidity
    00:00 +29°C° 0 mm 3 mps 702 mmHg 34%
    01:00 +28°C° 0 mm 2 mps 702 mmHg 38%
    02:00 +27°C° 0 mm 1 mps 701 mmHg 41%
    03:00 +27°C° 0 mm 1 mps 701 mmHg 44%
    04:00 +26°C° 0 mm 1 mps 701 mmHg 47%
    05:00 +26°C° 0 mm 1 mps 701 mmHg 50%
    06:00 +27°C° 0 mm 1 mps 702 mmHg 48%
    07:00 +28°C° 0 mm 2 mps 703 mmHg 45%
    08:00 +30°C° 0 mm 2 mps 703 mmHg 42%
    09:00 +31°C° 0 mm 2 mps 703 mmHg 35%
    10:00 +34°C° 0 mm 2 mps 703 mmHg 29%
    11:00 +36°C° 0 mm 3 mps 703 mmHg 23%
    12:00 +37°C° 0 mm 3 mps 702 mmHg 21%
    13:00 +38°C° 0 mm 3 mps 701 mmHg 19%
    14:00 +39°C° 0 mm 3 mps 701 mmHg 18%
    15:00 +39°C° 0 mm 3 mps 701 mmHg 17%
    16:00 +40°C° 0 mm 4 mps 700 mmHg 17%
    17:00 +40°C° 0 mm 4 mps 700 mmHg 17%
    18:00 +37°C° 0 mm 4 mps 701 mmHg 18%
    19:00 +36°C° 0 mm 4 mps 702 mmHg 20%
    20:00 +35°C° 0 mm 4 mps 702 mmHg 21%
    21:00 +34°C° 0 mm 4 mps 702 mmHg 25%
    22:00 +32°C° 0 mm 4 mps 702 mmHg 29%
    23:00 +30°C° 0 mm 4 mps 702 mmHg 33%

    25 March, Monday

    Time Temperature Precipitation Wind Pressure Humidity
    00:00 +29°C° 0 mm 3 mps 702 mmHg 36%
    01:00 +28°C° 0 mm 2 mps 701 mmHg 39%
    02:00 +28°C° 0 mm 1 mps 701 mmHg 42%
    03:00 +27°C° 0 mm 1 mps 701 mmHg 44%
    04:00 +27°C° 0 mm 1 mps 701 mmHg 45%
    05:00 +26°C° 0 mm 1 mps 701 mmHg 47%
    06:00 +27°C° 0 mm 1 mps 702 mmHg 44%
    07:00 +28°C° 0 mm 2 mps 703 mmHg 41%
    08:00 +30°C° 0 mm 2 mps 703 mmHg 38%
    09:00 +33°C° 0 mm 3 mps 703 mmHg 33%
    10:00 +35°C° 0 mm 3 mps 703 mmHg 27%
    11:00 +37°C° 0 mm 4 mps 703 mmHg 21%
    12:00 +38°C° 0 mm 4 mps 703 mmHg 20%
    13:00 +40°C° 0 mm 5 mps 702 mmHg 18%
    14:00 +41°C° 0 mm 5 mps 701 mmHg 16%
    15:00 +40°C° 0 mm 5 mps 701 mmHg 16%
    16:00 +40°C° 0 mm 5 mps 701 mmHg 17%
    17:00 +39°C° 0 mm 5 mps 701 mmHg 17%
    18:00 +37°C° 0 mm 5 mps 702 mmHg 20%
    19:00 +35°C° 0 mm 5 mps 703 mmHg 23%
    20:00 +34°C° 0 mm 5 mps 703 mmHg 26%
    21:00 +32°C° 0 mm 5 mps 703 mmHg 29%
    22:00 +30°C° 0 mm 4 mps 703 mmHg 32%
    23:00 +29°C° 0 mm 4 mps 704 mmHg 34%
    Show more